Game Details

[ Leader Board ] [ Players ] [ Opponents ] [ Guilds ] [ Areas ]

Game Details for: beef

Game Progress

Quest Completed on Day
Mushroom Stew 8

Full Telemetry

Time Game Day Game Hour Game Minute Type Details Value Extra Zone X Y Credits Guild
5/6/2020 11:25:58 PM 2 8 32 Daily ???? 498 BuildingHouse1 2 3 0 None
5/7/2020 4:05:58 PM 13 12 46 Equip Kinetic Field 133 Village1 4 9 187 None
5/7/2020 4:05:43 PM 13 12 46 Train Intelligence 2 Village1 4 9 187 None
5/6/2020 11:40:45 PM 7 14 52 Train Strength 2 Village1 4 9 94 None
5/6/2020 11:40:33 PM 7 12 52 Train Melee 2 Village1 4 9 110 None
5/6/2020 11:40:22 PM 7 10 52 Train Defense 2 Village1 4 9 122 None
5/7/2020 3:59:04 PM 12 12 21 Train Tech 2 Village1 5 8 265 None
5/6/2020 11:50:44 PM 9 14 32 Train Accuracy 2 Village1 5 8 39 None
5/6/2020 11:50:36 PM 9 12 32 Train Speed 2 Village1 5 8 71 None
5/6/2020 11:50:30 PM 9 10 32 Train Endurance 2 Village1 5 8 95 None
5/6/2020 11:43:51 PM 8 19 33 Combat Lv 1 Wasp 0 Win MushroomRiver 5 8 101 None
5/7/2020 10:24:41 PM 16 11 28 Save 0 2 InsectForest 6 12 313 None
5/7/2020 10:24:32 PM 16 11 28 Combat Lv 1 Chaak Warrior 0 Win InsectForest 6 12 313 None
5/7/2020 4:09:23 PM 14 4 22 Daily beef 1186 Village1 6 26 111 None
5/7/2020 3:49:14 PM 11 0 54 Daily beef 876 Village1 6 26 120 None
5/6/2020 11:47:57 PM 8 20 6 Nexus Quest 0 Mushrooms BuildingHouse1 6 9 189 None
5/6/2020 11:47:57 PM 8 20 6 Quest Mushroom Stew 0 BuildingHouse1 6 9 189 None
5/6/2020 11:46:53 PM 8 19 47 Combat Lv 1 Slime Mold 0 Win MushroomRiver 7 18 189 None
5/7/2020 10:22:41 PM 16 8 41 Daily beef 1279 Village1 10 27 288 None
5/7/2020 10:19:40 PM 15 10 12 Combat Lv 4 Wasp 0 Win Village1 10 7 152 None
5/7/2020 10:19:40 PM 15 10 12 Arena Win 5 Village1 10 7 225 None
5/7/2020 10:18:18 PM 15 8 52 Arena Win 4 Village1 10 7 125 None
5/7/2020 10:18:18 PM 15 8 52 Combat Lv 3 Slime Mold 0 Win Village1 10 7 64 None
5/7/2020 10:11:58 PM 15 8 58 Arena Loss 3 Village1 10 7 177 None
5/7/2020 10:11:58 PM 15 8 58 Combat Lv 3 Slime Mold 0 Die Village1 10 7 159 None
5/7/2020 4:14:01 PM 15 10 2 Combat Lv 4 Wasp 0 Die Village1 10 7 268 None
5/7/2020 4:14:01 PM 15 10 2 Arena Loss 4 Village1 10 7 292 None
5/7/2020 4:12:13 PM 15 8 59 Combat Lv 3 Slime Mold 0 Win Village1 10 7 207 None
5/7/2020 4:12:13 PM 15 8 59 Arena Win 4 Village1 10 7 268 None
5/7/2020 4:10:21 PM 15 4 42 Daily beef 1186 Village1 10 27 142 None